Regional Weather Roundup
Issued by NWS Portland, ME

Current Version | Previous Version | Text Only | Print | Product List | Glossary Off
Versions: 1 2 3 4 5 6 7 8 9 10 11 12 13 14 15 16 17 18 19 20 21 22 23 24 25 26 27 28 29 30 31 32 33 34 35 36 37 38 39 40 41 42 43 44 45 46 47 48 49 50
000 ASUS41 KGYX 221610 RWRGYX WEATHER ROUNDUP FOR MAINE AND NEW HAMPSHIRE NATIONAL WEATHER SERVICE GRAY ME 1200 PM EDT FRI SEP 22 2017 MEZ002-005-006-010-012-015-018-020-021-024-026-027-029-221700- MAINE CITY SKY/WX TMP DP RH WIND PRES REMARKS PORTLAND CLOUDY 65 49 56 NE13 30.11S SANFORD CLOUDY 64 50 60 N13 30.10S BAR HARBOR CLOUDY 65 51 60 NE7 30.13S WISCASSET CLOUDY 67 51 56 VRB3 30.12S ROCKLAND CLOUDY 63 51 65 N9G16 30.11S FRYEBURG CLOUDY 69 43 38 N8G17 30.14F LEWISTONAUBURN CLOUDY 65 48 54 N15 30.13S AUGUSTA CLOUDY 65 48 54 NE13 30.14F WATERVILLE CLOUDY 66 49 54 NE8 30.12F BANGOR MOSUNNY 69 49 48 N10 30.15F GREENVILLE N/A 66 46 48 NW5 30.16F MILLINOCKET SUNNY 67 42 40 N6 30.18F HOULTON SUNNY 67 45 45 NW3 30.17F PRESQUE ISLE SUNNY 65 46 50 VRB7 30.20F FRENCHVILLE SUNNY 64 45 49 S8 30.18F CARIBOU SUNNY 67 46 47 CALM 30.18F $$ NHZ002-005-008-009-011-012-014-221700- NEW HAMPSHIRE CITY SKY/WX TMP DP RH WIND PRES REMARKS PORTSMOUTH CLOUDY 61 52 73 NE10G20 30.06F ROCHESTER CLOUDY 65 48 54 N10G22 30.09R NASHUA CLOUDY 67 52 58 N13G21 30.07F MANCHESTER CLOUDY 68 49 50 NE12 30.06F CONCORD CLOUDY 67 49 52 N8 30.10S LACONIA CLOUDY 67 47 48 NE13 30.11 PLYMOUTH FAIR 69 46 43 CALM 30.11S BERLIN SUNNY 69 44 40 CALM 30.15F WHITEFIELD SUNNY 73 38 27 E9 30.13F JAFFREY CLOUDY 63 49 60 MISG 30.09F KEENE PTSUNNY 70 47 43 N8G20 30.08F LEBANON CLOUDY 68 52 56 N7 30.12F MT WASHINGTON MOSUNNY 54 25 32 E21G31 N/A $$ VTZ005-007-008-221700- VERMONT CITY SKY/WX TMP DP RH WIND PRES REMARKS ST JOHNSBURY N/A 69 47 45 MISG 30.11F MONTPELIER SUNNY 67 50 54 N7 30.18F BURLINGTON MOSUNNY 71 57 61 NW8 30.14F $$ MAZ007-012-024-CTZ003-RIZ002-NYZ038-NYZ072-221700- SOUTHERN NEW ENGLAND AND NY CITY SKY/WX TMP DP RH WIND PRES REMARKS BOSTON LGT RAIN 59 55 87 N24G37 30.01F WORCESTER CLOUDY 62 50 64 N16G31 30.03S NANTUCKET LGT RAIN 62 62 100 N30G36 29.79S FOG PROVIDENCE RAIN 59 58 96 N23G30 29.97F FOG HARTFORD PTSUNNY 74 51 44 N20G29 30.02S ALBANY MOSUNNY 72 52 49 N10 30.10F NEW YORK CITY MOSUNNY 75 54 47 N16G24 29.99F $$ ANZ081-ANZ082-ANZ150-NHZ014-MEZ023>029-221700- COASTAL MARINE OBSERVATIONS STATION/POSITION TIME TEMP WIND PRES WAVE AIR SEA DIR/SP/G HT/PER (UTC) (F) (DEG/KT/KT) (MB) (FT/S) MOUNT DESERT ROC 1600 55 20/ 29/ 32 1018.8F MATINICUS ROCK 1500 56 30/ 21/ 23 1018.6S ISLE OF SHOALS 1500 58 20/ 28/ 32 1017.1S JEFFREYS LEDGE 1536 62 N/A 12/ 8 GEORGES BANK BUO 1450 71 71 1008.9 14/ 9 $$ .............KEY.............. WCI - WIND CHILL TC - TEMPERATURE IN CELSIUS VSB - VISIBILITY IN MILES HX - HEAT INDEX FAIR- INDICATES FEW OR NO CLOUDS BELOW 12,000 FT, WITH NO SIGNIFICANT WEATHER AND/OR OBSTRUCTIONS TO VISIBILITY.

USA.gov is the U.S. government's official web portal to all federal, state and local government web resources and services.